Tracking 19562 objects as of 25-Mar-2019
HD Live streaming from Space Station
objects crossing your sky now

BSAT-1B

Track BSAT-1B now!
BSAT-1B is classified as:


NORAD ID: 25312
Int'l Code: 1998-024B
Perigee: 36,093.7 km
Apogee: 36,144.5 km
Inclination: 6.1 °
Period: 1,452.8 minutes
Semi major axis: 42490 km
RCS: 15.8489 m2 (large)
Launch date: April 28, 1998
Source: Japan (JPN)
Launch site: FRENCH GUIANA (FRGUI)

8 Ku-band; voice and video communication for Japan and vicinity.
aabbcc
Your satellite tracking list
Your tracking list is empty




NASA's NSSDC Master Catalog

Two Line Element Set (TLE):
1 25312U 98024B   19083.84179212 -.00000317 +00000-0 +00000-0 0  9993
2 25312 006.1423 064.0485 0005972 246.1417 318.7490 00.99122261019976
Source of the keplerian elements: AFSPC